Logan, UT

7:33 PM MST on December 14, 2019 (GMT -0700)
Logan-Cache

Weather History for KLGU - November, 2019

Change the Weather History Date:

Thursday, November 14, 2019

  Actual Average Record
Temperature  
Mean Temperature 38 °F -  
Max Temperature 53 °F 47 °F 65 °F (1963)
Min Temperature 24 °F 25 °F 7 °F (1959)
Degree Days  
Heating Degree Days 26    
Moisture  
Dew Point 28 °F    
Average Humidity 72    
Maximum Humidity 91    
Minimum Humidity 45    
Precipitation  
Precipitation 0.00 in - - ()
Sea Level Pressure  
Sea Level Pressure 30.22 in    
Wind  
Wind Speed 1 mph ()    
Max Wind Speed 6 mph    
Max Gust Speed -    
Visibility 10.0 miles    
Events      
Averages and records for this station are not official NWS values.
T = Trace of Precipitation, MM = Missing Value Source: Averaged Metar Reports

Daily Weather History Graph

Daily Weather History Graph

Search for Another Location

Airport or City:

Astronomy

Nov. 14, 2019 Rise Set
Actual Time 7:15 AM MST 5:07 PM MST
Civil Twilight 6:45 AM MST 5:37 PM MST
Nautical Twilight 6:11 AM MST 6:11 PM MST
Astronomical Twilight 5:39 AM MST 6:44 PM MST
Moon 6:55 PM MST (11/14) 9:15 AM MST (11/14)
Length of Visible Light 10h 52m
Length of Day
9h 52m
Waning Gibbous, 95% of the Moon is Illuminated
Nov 14
Waning Gibbous
Nov 19
Last Quarter
Nov 26
New
Dec 3
First Quarter
Dec 11
Full

Hourly Weather History & Observations

Time (MST) Temp. Windchill Dew Point Humidity Pressure Visibility Wind Dir Wind Speed Gust Speed Precip Events Conditions
12:51 AM 28.9 °F 22.8 °F 25.0 °F 85% 30.20 in 10.0 mi NNE 5.8 mph - N/A   Clear
1:51 AM 28.9 °F - 25.0 °F 85% 30.20 in 10.0 mi Calm Calm - N/A   Clear
2:51 AM 28.9 °F - 24.1 °F 82% 30.21 in 10.0 mi Calm Calm - N/A   Clear
3:51 AM 28.0 °F - 24.1 °F 85% 30.22 in 10.0 mi Calm Calm - N/A   Clear
4:51 AM 25.0 °F - 21.9 °F 88% 30.24 in 10.0 mi Calm Calm - N/A   Clear
5:51 AM 26.1 °F - 23.0 °F 88% 30.25 in 10.0 mi Calm Calm - N/A   Clear
6:51 AM 24.1 °F - 21.9 °F 91% 30.28 in 10.0 mi Calm Calm - N/A   Clear
7:51 AM 26.1 °F - 21.9 °F 84% 30.30 in 10.0 mi Calm Calm - N/A   Clear
8:51 AM 30.9 °F - 27.0 °F 85% 30.31 in 10.0 mi Calm Calm - N/A   Clear
9:51 AM 37.0 °F - 30.0 °F 76% 30.30 in 10.0 mi Calm Calm - N/A   Clear
10:51 AM 43.0 °F 41.3 °F 30.9 °F 62% 30.27 in 10.0 mi NW 3.5 mph - N/A   Clear
11:51 AM 48.9 °F - 32.0 °F 52% 30.24 in 10.0 mi Variable 3.5 mph - N/A   Clear
12:51 PM 50.0 °F - 30.9 °F 48% 30.22 in 10.0 mi Calm Calm - N/A   Clear
1:51 PM 52.0 °F - 30.9 °F 45% 30.19 in 10.0 mi Calm Calm - N/A   Clear
2:51 PM 53.1 °F - 33.1 °F 47% 30.17 in 10.0 mi Calm Calm - N/A   Clear
3:51 PM 52.0 °F - 33.1 °F 49% 30.17 in 10.0 mi WSW 3.5 mph - N/A   Clear
4:51 PM 50.0 °F - 33.1 °F 52% 30.17 in 10.0 mi Calm Calm - N/A   Clear
5:51 PM 46.0 °F - 32.0 °F 58% 30.19 in 10.0 mi Calm Calm - N/A   Clear
6:51 PM 41.0 °F - 32.0 °F 70% 30.21 in 10.0 mi Calm Calm - N/A   Clear
7:51 PM 39.9 °F - 32.0 °F 73% 30.21 in 10.0 mi Calm Calm - N/A   Clear
8:51 PM 37.0 °F - 28.9 °F 73% 30.20 in 10.0 mi Calm Calm - N/A   Clear
9:51 PM 32.0 °F 28.7 °F 27.0 °F 82% 30.20 in 10.0 mi East 3.5 mph - N/A   Clear
10:51 PM 34.0 °F 31.0 °F 28.0 °F 79% 30.17 in 10.0 mi NNE 3.5 mph - N/A   Clear
11:51 PM 30.9 °F - 26.1 °F 82% 30.17 in 10.0 mi Calm Calm - N/A   Clear